When you browse on this site, cookies collect data to enhance your experience and personalize the content and advertising you see.
Visit our Privacy Policy to learn more. By continuing to use the site, you agree to this use of cookies and data.
  • In Slovakia
  • List of Countries
  • For 7 days
  • Water Temperature
  • Satellite Maps
  • Weather Map
  • Weather Widgets
  • user-avatar
    Login

    Hourly Weather Korçe

    Today, 10 December, Monday

    Time Temperature Precipitation Wind Pressure Humidity
    00:00 +3°C° 0.9 mm 2 mps 659 mmHg 91%
    01:00 +3°C° 0.9 mm 2 mps 659 mmHg 91%
    02:00 +3°C° 0.6 mm 2 mps 658 mmHg 92%
    03:00 +3°C° 0.6 mm 2 mps 658 mmHg 93%
    04:00 +2°C° 0.6 mm 2 mps 657 mmHg 93%
    05:00 +3°C° 0.2 mm 2 mps 657 mmHg 93%
    06:00 +3°C° 0.2 mm 2 mps 657 mmHg 93%
    07:00 +3°C° 0.2 mm 2 mps 657 mmHg 93%
    08:00 +3°C° 0.4 mm 2 mps 658 mmHg 89%
    09:00 +3°C° 0.4 mm 3 mps 659 mmHg 86%
    10:00 +4°C° 0.4 mm 4 mps 659 mmHg 82%
    11:00 +4°C° 0.3 mm 3 mps 659 mmHg 77%
    12:00 +4°C° 0.3 mm 3 mps 660 mmHg 72%
    13:00 +4°C° 0.3 mm 3 mps 660 mmHg 67%
    14:00 +4°C° 0 mm 3 mps 660 mmHg 70%
    15:00 +4°C° 0 mm 2 mps 660 mmHg 72%
    16:00 +3°C° 0 mm 2 mps 660 mmHg 75%
    17:00 +3°C° 0 mm 1 mps 660 mmHg 78%
    18:00 +3°C° 0 mm 1 mps 660 mmHg 80%
    19:00 +2°C° 0 mm 1 mps 660 mmHg 83%
    20:00 +2°C° 0 mm 1 mps 661 mmHg 84%
    21:00 +1°C° 0 mm 1 mps 661 mmHg 85%
    22:00 +1°C° 0 mm 1 mps 661 mmHg 85%
    23:00 +1°C° 0 mm 1 mps 661 mmHg 85%

    Tomorrow, 11 December, Tuesday

    Time Temperature Precipitation Wind Pressure Humidity
    00:00 +1°C° 0 mm 1 mps 661 mmHg 85%
    01:00 +1°C° 0 mm 1 mps 661 mmHg 85%
    02:00 0°C° 0 mm 1 mps 661 mmHg 85%
    03:00 0°C° 0 mm 1 mps 661 mmHg 85%
    04:00 0°C° 0 mm 1 mps 661 mmHg 85%
    05:00 0°C° 0 mm 1 mps 661 mmHg 85%
    06:00 0°C° 0 mm 1 mps 662 mmHg 85%
    07:00 0°C° 0 mm 1 mps 662 mmHg 85%
    08:00 +1°C° 0 mm 1 mps 662 mmHg 80%
    09:00 +2°C° 0 mm 1 mps 663 mmHg 74%
    10:00 +3°C° 0 mm 1 mps 664 mmHg 68%
    11:00 +3°C° 0 mm 1 mps 664 mmHg 64%
    12:00 +4°C° 0 mm 1 mps 664 mmHg 60%
    13:00 +4°C° 0 mm 1 mps 664 mmHg 56%
    14:00 +3°C° 0 mm 1 mps 664 mmHg 59%
    15:00 +2°C° 0 mm 1 mps 663 mmHg 62%
    16:00 +2°C° 0 mm 1 mps 663 mmHg 65%
    17:00 +1°C° 0 mm 1 mps 663 mmHg 68%
    18:00 0°C° 0 mm 1 mps 664 mmHg 71%
    19:00 -1°C° 0 mm 1 mps 664 mmHg 74%
    20:00 -1°C° 0 mm 1 mps 664 mmHg 73%
    21:00 -1°C° 0 mm 1 mps 664 mmHg 73%
    22:00 -1°C° 0 mm 1 mps 664 mmHg 73%
    23:00 -1°C° 0.1 mm 1 mps 664 mmHg 73%

    Day after tomorrow, 12 December, Wednesday

    Time Temperature Precipitation Wind Pressure Humidity
    00:00 0°C° 0.1 mm 1 mps 664 mmHg 72%
    01:00 0°C° 0.1 mm 1 mps 665 mmHg 71%
    02:00 -1°C° 0.1 mm 1 mps 665 mmHg 74%
    03:00 -1°C° 0.1 mm 1 mps 664 mmHg 77%
    04:00 -1°C° 0.1 mm 1 mps 664 mmHg 80%
    05:00 -2°C° 0 mm 1 mps 665 mmHg 81%
    06:00 -2°C° 0 mm 1 mps 665 mmHg 81%
    07:00 -3°C° 0 mm 1 mps 665 mmHg 82%
    08:00 -1°C° 0 mm 1 mps 666 mmHg 73%
    09:00 0°C° 0 mm 1 mps 666 mmHg 64%
    10:00 +2°C° 0 mm 1 mps 667 mmHg 55%
    11:00 +2°C° 0 mm 1 mps 667 mmHg 50%
    12:00 +3°C° 0 mm 1 mps 667 mmHg 44%
    13:00 +2°C° 0 mm 2 mps 667 mmHg 39%
    14:00 +2°C° 0 mm 1 mps 666 mmHg 43%
    15:00 +1°C° 0 mm 1 mps 666 mmHg 47%
    16:00 0°C° 0 mm 1 mps 666 mmHg 51%
    17:00 -1°C° 0 mm 1 mps 666 mmHg 51%
    18:00 -1°C° 0 mm 1 mps 666 mmHg 51%
    19:00 -2°C° 0 mm 1 mps 666 mmHg 52%
    20:00 -2°C° 0 mm 1 mps 666 mmHg 51%
    21:00 -1°C° 0 mm 1 mps 666 mmHg 50%
    22:00 -3°C° 0 mm 2 mps 666 mmHg 49%
    23:00 -3°C° 0 mm 2 mps 666 mmHg 47%

    13 December, Thursday

    Time Temperature Precipitation Wind Pressure Humidity
    00:00 -3°C° 0 mm 2 mps 666 mmHg 45%
    01:00 -3°C° 0 mm 2 mps 666 mmHg 43%
    02:00 -2°C° 0.1 mm 2 mps 666 mmHg 44%
    03:00 -2°C° 0.1 mm 2 mps 666 mmHg 44%
    04:00 -2°C° 0.1 mm 2 mps 665 mmHg 45%
    05:00 -2°C° 0.5 mm 2 mps 665 mmHg 56%
    06:00 -3°C° 0.5 mm 2 mps 665 mmHg 67%
    07:00 -3°C° 0.5 mm 2 mps 665 mmHg 78%
    08:00 -3°C° 0.4 mm 2 mps 665 mmHg 80%
    09:00 -2°C° 0.4 mm 2 mps 665 mmHg 81%
    10:00 -1°C° 0.4 mm 2 mps 665 mmHg 82%
    11:00 -1°C° 0.3 mm 2 mps 665 mmHg 83%
    12:00 +1°C° 0.3 mm 2 mps 665 mmHg 84%
    13:00 +1°C° 0.3 mm 2 mps 665 mmHg 85%
    14:00 +1°C° 0.3 mm 2 mps 665 mmHg 87%
    15:00 +1°C° 0.3 mm 2 mps 664 mmHg 89%
    16:00 +1°C° 0.3 mm 2 mps 664 mmHg 90%
    17:00 +1°C° 0.3 mm 2 mps 664 mmHg 91%
    18:00 +1°C° 0.3 mm 2 mps 665 mmHg 92%
    19:00 +1°C° 0.3 mm 2 mps 665 mmHg 93%
    20:00 +1°C° 0.2 mm 2 mps 665 mmHg 93%
    21:00 +1°C° 0.2 mm 2 mps 665 mmHg 93%
    22:00 +2°C° 0.2 mm 2 mps 665 mmHg 94%
    23:00 +2°C° 0.2 mm 2 mps 664 mmHg 94%

    14 December, Friday

    Time Temperature Precipitation Wind Pressure Humidity
    00:00 +2°C° 0.2 mm 2 mps 664 mmHg 94%
    01:00 +1°C° 0.2 mm 3 mps 664 mmHg 95%
    02:00 +1°C° 0.2 mm 3 mps 664 mmHg 95%
    03:00 +1°C° 0.2 mm 3 mps 663 mmHg 95%
    04:00 +1°C° 0.2 mm 3 mps 663 mmHg 95%
    05:00 +2°C° 0.1 mm 3 mps 663 mmHg 95%
    06:00 +2°C° 0.1 mm 3 mps 663 mmHg 95%
    07:00 +2°C° 0.1 mm 3 mps 662 mmHg 95%
    08:00 +3°C° 0.3 mm 4 mps 662 mmHg 94%
    09:00 +3°C° 0.3 mm 4 mps 663 mmHg 94%
    10:00 +4°C° 0.3 mm 4 mps 663 mmHg 93%
    11:00 +4°C° 0.8 mm 4 mps 662 mmHg 93%
    12:00 +4°C° 0.8 mm 4 mps 661 mmHg 93%
    13:00 +4°C° 0.8 mm 4 mps 661 mmHg 92%
    14:00 +4°C° 2.1 mm 4 mps 660 mmHg 93%
    15:00 +4°C° 2.1 mm 4 mps 660 mmHg 94%
    16:00 +3°C° 2.1 mm 4 mps 659 mmHg 95%
    17:00 +3°C° 3.7 mm 3 mps 659 mmHg 96%
    18:00 +3°C° 3.7 mm 3 mps 659 mmHg 96%
    19:00 +3°C° 3.7 mm 3 mps 658 mmHg 97%
    20:00 +3°C° 3.5 mm 2 mps 658 mmHg 96%
    21:00 +3°C° 3.5 mm 2 mps 658 mmHg 96%
    22:00 +3°C° 3.5 mm 2 mps 658 mmHg 95%
    23:00 +3°C° 0.7 mm 2 mps 658 mmHg 95%

    15 December, Saturday

    Time Temperature Precipitation Wind Pressure Humidity
    00:00 +3°C° 0.7 mm 2 mps 657 mmHg 94%
    01:00 +2°C° 0.7 mm 2 mps 657 mmHg 94%
    02:00 +2°C° 0 mm 2 mps 657 mmHg 93%
    03:00 +2°C° 0 mm 2 mps 657 mmHg 93%
    04:00 +1°C° 0 mm 2 mps 656 mmHg 92%
    05:00 +1°C° 0 mm 2 mps 656 mmHg 90%
    06:00 +2°C° 0 mm 1 mps 657 mmHg 89%
    07:00 +2°C° 0 mm 1 mps 657 mmHg 87%
    08:00 +3°C° 0 mm 1 mps 657 mmHg 83%
    09:00 +4°C° 0 mm 1 mps 658 mmHg 79%
    10:00 +6°C° 0 mm 1 mps 658 mmHg 74%
    11:00 +6°C° 0 mm 1 mps 659 mmHg 73%
    12:00 +6°C° 0 mm 2 mps 659 mmHg 71%
    13:00 +6°C° 0 mm 2 mps 659 mmHg 69%
    14:00 +5°C° 0 mm 2 mps 659 mmHg 73%
    15:00 +5°C° 0 mm 2 mps 659 mmHg 78%
    16:00 +4°C° 0 mm 2 mps 659 mmHg 82%
    17:00 +3°C° 0 mm 2 mps 660 mmHg 84%
    18:00 +2°C° 0 mm 2 mps 660 mmHg 86%
    19:00 +1°C° 0 mm 2 mps 660 mmHg 87%
    20:00 +1°C° 0 mm 2 mps 661 mmHg 87%
    21:00 -1°C° 0 mm 2 mps 661 mmHg 87%
    22:00 -1°C° 0 mm 2 mps 661 mmHg 88%
    23:00 -1°C° 0 mm 2 mps 662 mmHg 87%
    Show more